Regional Weather Roundup
Issued by NWS

Home | Current Version | Previous Version | Text Only | Print | Product List | Glossary Off
Versions: 1 2 3 4 5 6 7 8 9 10 11 12 13 14 15 16 17 18 19 20 21 22 23 24 25 26 27 28 29 30 31 32 33 34 35 36 37 38 39 40 41 42 43 44 45 46 47 48 49 50

799
ASUS43 KMPX 251410
RWRMN
WEATHER ROUNDUP FOR MINNESOTA
NATIONAL WEATHER SERVICE TWIN CITIES/CHANHASSEN MN
900 AM CDT THU MAY 25 2017


NOTE: "FAIR" INDICATES FEW OR NO CLOUDS BELOW 12,000 FEET WITH NO
SIGNIFICANT WEATHER AND/OR OBSTRUCTIONS TO VISIBILITY. N/A MEANS
CURRENT SKY AND/OR WEATHER CONDITIONS ARE NOT AVAILABLE.

MNZ060>063-068>070-251500-
   Twin Cities Metro

CITY           SKY/WX    TMP DP  RH WIND       PRES   REMARKS
TWIN CITIES    MOSUNNY   58  50  75 S6        29.72S
ST PAUL        MOSUNNY   59  53  80 S7        29.73S
CRYSTAL        MOSUNNY   58  48  69 S10       29.71R
BLAINE         MOSUNNY   61  54  77 SE8       29.72R
LAKEVILLE      MOSUNNY   57  54  88 S7        29.72S
EDEN PRAIRIE   SUNNY     59  51  75 SE13      29.71R
SOUTH ST PAUL  SUNNY     57  50  78 SE7       29.72S
LAKE ELMO      FAIR      57  52  82 SE7       29.74R
$$
MNZ001>005-007-008-013>017-022>024-027-028-251500-
   Northwest Minnesota

CITY           SKY/WX    TMP DP  RH WIND       PRES   REMARKS
BEMIDJI        CLOUDY    54  46  75 SE13      29.63F
HALLOCK        MOSUNNY   57  45  62 S21       29.57R
ROSEAU         MOSUNNY   55  46  71 SE13G22   29.61S
WARROAD        CLOUDY    55  48  76 SE12G18   29.63S
THIEF RVR FALL CLOUDY    55  45  68 S15       29.61R
CROOKSTON      CLOUDY    55  46  71 S20       29.58S
FOSSTON        PTSUNNY   54  46  76 SE16G22   29.60R
DETROIT LAKES  CLOUDY    54  46  76 S15       29.62R
MOORHEAD       PTSUNNY   57  46  67 SE20G26   29.57S
PARK RAPIDS    MOSUNNY   55  44  66 SE12      29.62F
MAHNOMEN       FAIR      54  45  70 S15G23    29.60R
$$
MNZ006-009>011-018-025>026-251500-
   North Central Minnesota

CITY           SKY/WX    TMP DP  RH WIND       PRES   REMARKS
BAUDETTE       MOSUNNY   54  44  69 SE13      29.66F
FLAG ISLAND    PTSUNNY   54  43  66 E10       29.64F
INTL FALLS     SUNNY     56  44  64 SE9       29.71F
WASKISH        MOSUNNY   55  46  71 SE12G17   29.65F
BIG FORK       MOSUNNY   55  46  71 SE9       29.70F
LONGVILLE      MOSUNNY   54  46  76 SE7       29.67F
GRAND RAPIDS   CLOUDY    53  45  74 SE12      29.73F
CRANE LAKE     SUNNY     54  45  71 SE5       29.76F
ORR            SUNNY     55  43  62 SE7       29.70F
COOK           SUNNY     54  45  71 SE6       29.74F
WALKER         FAIR      54  47  77 SE7       29.65F
$$
MNZ012-019>021-037-251500-
   Northeast Minnesota

CITY           SKY/WX    TMP DP  RH WIND       PRES   REMARKS
DULUTH         PTSUNNY   49  45  86 SE7       29.75S
ELY            SUNNY     54  45  71 E9        29.75F
HIBBING        SUNNY     54  46  74 SE13      29.73F
EVELETH        PTSUNNY   55  43  63 SE7       29.75S
DULUTH HARBOR  CLOUDY    45  43  93 NE5       29.78S
TWO HARBORS    CLOUDY    55  48  76 E8        29.74F
SILVER BAY     PTSUNNY   54  46  76 E6        29.75F
GRAND MARAIS     N/A     46  40  79 CALM      29.78S
G MARAIS ARPRT SUNNY     55  39  54 E6        29.79S
$$
MNZ029>031-032-039>041-046>048-054>057-064-251500-
   West Central Minnesota

CITY           SKY/WX    TMP DP  RH WIND       PRES   REMARKS
FERGUS FALLS   PTSUNNY   55  46  71 S23       29.58S
WHEATON        MOSUNNY   55  48  76 SE24G30   29.57F
MORRIS         PTSUNNY   55  50  82 SE22G28   29.59F
ALEXANDRIA     CLOUDY    55  47  74 S13G22    29.64S
ELBOW LAKE     FAIR      56  48  73 SE17G26   29.61R
WADENA         MOSUNNY   54  46  76 SE15      29.62S
GLENWOOD       CLOUDY    55  48  76 SE17      29.64R
APPLETON       PTSUNNY   57  48  72 SE15G22   29.60F
BENSON         CLOUDY    57  48  72 S14G21    29.64R
ORTONVILLE     MOSUNNY   55  48  76 SE13G21   29.57S
MADISON        PTSUNNY   57  52  82 SE21      29.59F
WILLMAR        FAIR      57  50  77 S15G24    29.65S
$$
MNZ033>034-036-042>043-049>051-058-059-251500-
   Central Minnesota

CITY           SKY/WX    TMP DP  RH WIND       PRES   REMARKS
ST CLOUD       PTSUNNY   55  50  83 SE10      29.68F
SAUK CENTRE    FAIR      55  48  77 SE10      29.64F
PAYNESVILLE    PTSUNNY   56  48  74 SE14      29.64F
AITKIN         MOSUNNY   54  46  76 E9        29.69F
PINE RIVER     CLOUDY    55  48  76 SE13G18   29.70F
BRAINERD       MOSUNNY   55  48  77 SE12      29.68F
STAPLES        PTSUNNY   54  46  76 SE10      29.63F
LONG PRAIRIE   FAIR      54  46  76 E13G20    29.63F
LITTLE FALLS   CLOUDY    55  46  71 E13G18    29.66F
LITCHFIELD     PTSUNNY   59  52  77 SE10      29.67F
BUFFALO        MOSUNNY   57  49  74 SE7       29.70F
MAPLE LAKE     MOSUNNY   57  52  82 SE7       29.70F
HUTCHINSON     MOSUNNY   57  53  84 SE10      29.69F
$$
MNZ037-044-045-052-053-251500-
   East Central Minnesota

CITY           SKY/WX    TMP DP  RH WIND       PRES   REMARKS
PRINCETON      SUNNY     59  52  77 E10       29.71F
MORA           SUNNY     55  46  71 SE6       29.74S
CAMBRIDGE      MOSUNNY   61  48  63 S6        29.70S
RUSH CITY      SUNNY     56  49  77 SE5       29.73F
MOOSE LAKE     CLOUDY    50  43  76 CALM      29.73S
HINCKLEY       CLOUDY    54  46  76 E5        29.73F
CLOQUET        MOSUNNY   48  43  81 E7        29.75S
MCGREGOR       SUNNY     54  46  76 SE8       29.73F
$$
MNZ071>073-080-081-089-090-097-098-251500-
   Southwest Minnesota

CITY           SKY/WX    TMP DP  RH WIND       PRES   REMARKS
MONTEVIDEO     CLOUDY    55  48  76 S13G20    29.62F
CANBY          MOSUNNY   59  50  72 SE18G26   29.60F
MARSHALL       SUNNY     58  49  72 S22G29    29.61F
REDWOOD FALLS  SUNNY     59  48  67 S21       29.64F
OLIVIA         MOSUNNY   55  48  76 S16G22    29.65F
PIPESTONE      LGT RAIN  55  46  71 S17       29.60F
WINDOM         SUNNY     57  48  72 SE15      29.67F
WORTHINGTON    SUNNY     56  49  77 S15       29.67F
JACKSON        SUNNY     57  50  77 S9        29.69F
TRACY          SUNNY     58  51  79 S16G26    29.62F
SLAYTON        SUNNY     56  50  80 SE22      29.64F
$$
MNZ065>067-074>077-082>085-091>093-251500-
   South Central Minnesota

CITY           SKY/WX    TMP DP  RH WIND       PRES   REMARKS
NEW ULM        SUNNY     57  50  77 S10       29.68S
ST JAMES       SUNNY     57  50  77 S12       29.70S
FAIRMONT       SUNNY     58  51  78 S10       29.71R
GLENCOE        SUNNY     57  53  87 SE8       29.68F
FARIBAULT      MOSUNNY   54  52  94 E5        29.73R
OWATONNA       SUNNY     55  50  82 SE6       29.73R
WASECA         SUNNY     55  52  88 E9        29.72F
ALBERT LEA     MOSUNNY   55  52  88 SE7       29.72S
$$
MNZ078>079-086>088-094>096-251500-
   Southeast Minnesota

CITY           SKY/WX    TMP DP  RH WIND       PRES   REMARKS
ROCHESTER      SUNNY     55  50  83 E6        29.74S
RED WING       SUNNY     57  48  72 SE5       29.72S
STANTON        SUNNY     57  50  77 SE6       29.71S
DODGE CENTER   SUNNY     55  48  76 SE5       29.73R
WINONA         CLOUDY    52  52 100 CALM      29.74R FOG
AUSTIN         MOSUNNY   55  50  82 CALM      29.72S
PRESTON        CLOUDY    53  47  81 NE5       29.73S
$$
ABBREVIATIONS USED IN REMARKS
   TC - TEMPERATURES IN CELSIUS
  WCI - WIND CHILL INDEX
   HX - HEAT INDEX
  VSB - VISIBILITY
$$




USA.gov is the U.S. government's official web portal to all federal, state and local government web resources and services.